Location: Le Domaine
(47.0333°N, 76.5361°W)
Time: 01:18:29
(UTC-04:00)

Envisat - Visible Passes

Search period start: 23 March 2019 00:00
Search period end: 02 April 2019 00:00
Orbit: 764 x 766 km, 98.2° (Epoch: 22 March)

Date Brightness Start Highest point End Pass type
(mag) Time Alt. Az. Time Alt. Az. Time Alt. Az.
23 Mar 5.5 20:44:22 10° SW 20:48:24 23° W 20:52:27 10° NW visible
24 Mar 4.1 20:06:29 10° S 20:11:23 48° W 20:16:19 10° NNW visible
25 Mar 6.0 21:11:39 10° WSW 21:14:14 14° W 21:16:51 10° NW visible
26 Mar 5.1 20:32:42 10° SSW 20:37:05 29° W 20:41:29 10° NW visible
27 Mar 3.7 19:55:07 10° S 20:00:08 60° W 20:05:11 10° NNW visible
28 Mar 5.8 20:59:33 10° SW 21:02:53 17° W 21:06:14 10° NW visible
29 Mar 4.7 20:21:09 10° SSW 20:25:47 36° W 20:30:28 10° NNW visible
31 Mar 5.6 20:47:41 10° SW 20:51:32 22° W 20:55:25 10° NW visible
01 Apr 4.3 20:09:40 10° S 20:14:30 44° W 20:19:23 10° NNW visible
